Tracking 29088 objects as of 13-Jul-2024
HD Live streaming from Space Station
objects crossing your sky now

STARLINK-32022

Track STARLINK-32022 now!
10-day predictions
STARLINK-32022 is classified as:


NORAD ID: 60149
Int'l Code: 2024-120Q
Perigee: 333.2 km
Apogee: 334.7 km
Inclination: 53.1 °
Period: 91.1 minutes
Semi major axis: 6704 km
RCS: Unknown
Launch date: June 27, 2024
Source: United States (US)
Launch site: AIR FORCE EASTERN TEST RANGE (AFETR)
Your satellite tracking list
Your tracking list is empty




NASA's NSSDC Master Catalog

Two Line Element Set (TLE):
1 60149U 24120Q   24195.16667824 -.00917405  00000-0 -50663-2 0  9990
2 60149  53.1481 261.4530 0001119 100.5452 136.2456 15.81274539  3706
Source of the keplerian elements: AFSPC